Huntingburg, IN

1:48 AM EST on December 12, 2017 (GMT -0500)
Huntingburg

Weather History for KHNB - December, 2012

Change the Weather History Date:

Wednesday, December 26, 2012

  Actual Average Record
Temperature  
Mean Temperature 32 °F -  
Max Temperature 33 °F 37 °F 68 °F (2015)
Min Temperature 30 °F 24 °F 12 °F (2000)
Degree Days  
Heating Degree Days 34    
Moisture  
Dew Point 27 °F    
Average Humidity 83    
Maximum Humidity 87    
Minimum Humidity 75    
Precipitation  
Precipitation 0.60 in - - ()
Sea Level Pressure  
Sea Level Pressure 29.78 in    
Wind  
Wind Speed 18 mph (North)    
Max Wind Speed 36 mph    
Max Gust Speed 50 mph    
Averages and records for this station are not official NWS values.
T = Trace of Precipitation, MM = Missing Value Source: NWS Daily Summary

Daily Weather History Graph

Daily Weather History Graph

Search for Another Location

Airport or City:

Trip Planner

Search our weather history database for the weather conditions in past years. The results will help you decide how hot, cold, wet, or windy it might be!

Date:

Astronomy

Dec. 26, 2012 Rise Set
Actual Time 8:03 AM EST 5:34 PM EST
Civil Twilight 7:33 AM EST 6:03 PM EST
Nautical Twilight 7:00 AM EST 6:37 PM EST
Astronomical Twilight 6:28 AM EST 7:09 PM EST
Moon 4:27 PM EST (12/26) 6:26 AM EST (12/26)
Length of Visible Light 10h 30m
Length of Day
9h 31m
Waxing Gibbous, 97% of the Moon is Illuminated
Dec 26
Waxing Gibbous
Dec 28
Full
Jan 4
Last Quarter
Jan 11
New
Jan 18
First Quarter

Hourly Weather History & Observations

Time (EST) Temp. Windchill Dew Point Humidity Pressure Visibility Wind Dir Wind Speed Gust Speed Precip Events Conditions
12:15 AM 33.8 °F 22.8 °F 26.6 °F 75% 29.87 in - ENE 18.4 mph 28.8 mph N/A   Overcast
12:35 AM 33.8 °F 22.2 °F 28.4 °F 81% 29.84 in - NE 20.7 mph 28.8 mph N/A   Overcast
12:55 AM 33.8 °F 22.2 °F 28.4 °F 81% 29.82 in - ENE 20.7 mph 29.9 mph N/A   Overcast
1:15 AM 33.8 °F 21.9 °F 28.4 °F 81% 29.80 in - NE 21.9 mph 35.7 mph N/A   Overcast
1:35 AM 33.8 °F 21.6 °F 26.6 °F 75% 29.78 in - ENE 23.0 mph 33.4 mph N/A   Overcast
1:55 AM 33.8 °F 22.5 °F 28.4 °F 81% 29.76 in - NE 19.6 mph 33.4 mph N/A   Overcast
2:15 AM 33.8 °F 21.9 °F 28.4 °F 81% 29.74 in - NE 21.9 mph 31.1 mph 0.01 in   Overcast
2:35 AM 33.8 °F 22.2 °F 28.4 °F 81% 29.72 in - NE 20.7 mph 34.5 mph 0.04 in   Overcast
2:55 AM 33.8 °F 21.9 °F 28.4 °F 81% 29.69 in - NE 21.9 mph 32.2 mph 0.06 in   Overcast
3:15 AM 33.8 °F 22.2 °F 28.4 °F 81% 29.68 in - NE 20.7 mph 34.5 mph 0.01 in   Overcast
3:55 AM 33.8 °F 21.3 °F 28.4 °F 81% 29.67 in - NE 24.2 mph 28.8 mph 0.07 in   Overcast
4:15 AM 33.8 °F 20.3 °F 28.4 °F 81% 29.62 in - NE 28.8 mph 35.7 mph 0.07 in   Overcast
4:55 AM 33.8 °F 19.0 °F 28.4 °F 81% 29.60 in - NNE 35.7 mph 49.5 mph 0.17 in   Overcast
5:35 AM 33.8 °F 22.8 °F 28.4 °F 81% 29.58 in - NNE 18.4 mph 49.5 mph 0.19 in   Overcast
6:15 AM 33.8 °F 22.8 °F 30.2 °F 87% 29.58 in - NE 18.4 mph 42.6 mph 0.03 in   Overcast
6:35 AM 33.8 °F 22.8 °F 28.4 °F 81% 29.58 in - NNE 18.4 mph 29.9 mph 0.03 in   Overcast
6:55 AM 32.0 °F 20.8 °F 28.4 °F 87% 29.58 in - NNE 17.3 mph 31.1 mph 0.03 in   Overcast
7:15 AM 32.0 °F 20.8 °F 28.4 °F 87% 29.58 in - NNE 17.3 mph 23.0 mph 0.01 in   Overcast
7:35 AM 32.0 °F 20.5 °F 28.4 °F 87% 29.58 in - NNE 18.4 mph 24.2 mph 0.02 in   Overcast
7:55 AM 32.0 °F 21.2 °F 28.4 °F 87% 29.58 in - NNE 16.1 mph - 0.04 in   Overcast
8:15 AM 32.0 °F 20.5 °F 28.4 °F 87% 29.58 in - NNE 18.4 mph 24.2 mph 0.03 in   Unknown
8:35 AM 32.0 °F 22.1 °F 28.4 °F 87% 29.59 in - North 13.8 mph 24.2 mph 0.04 in   Unknown
8:55 AM 32.0 °F 21.6 °F 28.4 °F 87% 29.59 in - North 15.0 mph 19.6 mph 0.04 in   Unknown
9:15 AM 32.0 °F 22.5 °F 28.4 °F 87% 29.60 in - North 12.7 mph 20.7 mph N/A   Unknown
9:35 AM 32.0 °F 22.1 °F 28.4 °F 87% 29.61 in - North 13.8 mph 21.9 mph N/A   Overcast
9:55 AM 32.0 °F 22.5 °F 28.4 °F 87% 29.62 in - North 12.7 mph 20.7 mph N/A   Unknown
10:15 AM 32.0 °F 21.6 °F 28.4 °F 87% 29.63 in - North 15.0 mph 21.9 mph N/A   Overcast
10:35 AM 32.0 °F 21.2 °F 28.4 °F 87% 29.64 in - North 16.1 mph 23.0 mph N/A   Overcast
10:55 AM 32.0 °F 22.5 °F 28.4 °F 87% 29.65 in - North 12.7 mph 20.7 mph N/A   Overcast
11:15 AM 32.0 °F 23.6 °F 28.4 °F 87% 29.66 in - North 10.4 mph 23.0 mph N/A   Overcast
11:35 AM 32.0 °F 21.6 °F 28.4 °F 87% 29.66 in - North 15.0 mph 21.9 mph N/A   Overcast
11:55 AM 32.0 °F 21.6 °F 28.4 °F 87% 29.66 in - North 15.0 mph 26.5 mph N/A   Unknown
12:15 PM 32.0 °F 21.6 °F 28.4 °F 87% 29.67 in - North 15.0 mph 23.0 mph N/A   Unknown
12:55 PM 32.0 °F 20.8 °F 28.4 °F 87% 29.68 in - NNW 17.3 mph 25.3 mph N/A   Unknown
1:15 PM 32.0 °F 21.2 °F 28.4 °F 87% 29.69 in - NNW 16.1 mph 24.2 mph N/A   Unknown
1:35 PM 32.0 °F 20.8 °F 28.4 °F 87% 29.70 in - NNW 17.3 mph 26.5 mph N/A   Overcast
1:55 PM 32.0 °F 20.5 °F 28.4 °F 87% 29.71 in - NNW 18.4 mph 24.2 mph N/A   Unknown
2:15 PM 32.0 °F 20.1 °F 26.6 °F 80% 29.72 in - NNW 19.6 mph 27.6 mph N/A   Overcast
2:35 PM 32.0 °F 20.8 °F 26.6 °F 80% 29.75 in - NNW 17.3 mph 27.6 mph N/A   Overcast
2:55 PM 32.0 °F 20.5 °F 26.6 °F 80% 29.76 in - NNW 18.4 mph 27.6 mph N/A   Overcast
3:15 PM 32.0 °F 21.2 °F 26.6 °F 80% 29.78 in - NNW 16.1 mph 28.8 mph N/A   Overcast
3:35 PM 32.0 °F 21.2 °F 26.6 °F 80% 29.79 in - NNW 16.1 mph 29.9 mph N/A   Overcast
3:55 PM 32.0 °F 21.2 °F 26.6 °F 80% 29.80 in - NNW 16.1 mph 24.2 mph N/A   Overcast
4:16 PM 30.2 °F 18.5 °F 26.6 °F 86% 29.82 in - NNW 17.3 mph 25.3 mph N/A   Overcast
4:35 PM 30.2 °F 18.1 °F 26.6 °F 86% 29.84 in - NNW 18.4 mph 24.2 mph N/A   Overcast
4:55 PM 30.2 °F 18.5 °F 26.6 °F 86% 29.85 in - NNW 17.3 mph 24.2 mph N/A   Overcast
5:15 PM 30.2 °F 18.9 °F 26.6 °F 86% 29.87 in - NNW 16.1 mph 25.3 mph N/A   Overcast
5:35 PM 30.2 °F 19.8 °F 24.8 °F 80% 29.89 in - NNW 13.8 mph 20.7 mph N/A   Overcast
5:55 PM 30.2 °F 18.5 °F 24.8 °F 80% 29.90 in - NNW 17.3 mph 25.3 mph N/A   Overcast
6:15 PM 30.2 °F 19.3 °F 24.8 °F 80% 29.92 in - NNW 15.0 mph 24.2 mph N/A   Overcast
6:35 PM 30.2 °F 18.5 °F 24.8 °F 80% 29.93 in - NNW 17.3 mph - N/A   Overcast
6:55 PM 30.2 °F 19.3 °F 24.8 °F 80% 29.95 in - NNW 15.0 mph 19.6 mph N/A   Overcast
7:15 PM 30.2 °F 19.3 °F 24.8 °F 80% 29.96 in - NNW 15.0 mph 19.6 mph N/A   Overcast
7:35 PM 30.2 °F 20.8 °F 24.8 °F 80% 29.97 in - NW 11.5 mph - N/A   Overcast
8:15 PM 30.2 °F 20.8 °F 24.8 °F 80% 29.99 in - NNW 11.5 mph 18.4 mph N/A   Overcast
8:35 PM 30.2 °F 20.2 °F 24.8 °F 80% 29.99 in - NW 12.7 mph - N/A   Overcast
8:55 PM 30.2 °F 20.8 °F 24.8 °F 80% 30.00 in - NNW 11.5 mph - N/A   Overcast
9:15 PM 30.2 °F 20.2 °F 24.8 °F 80% 30.01 in - NNW 12.7 mph - N/A   Overcast
9:35 PM 30.2 °F 20.2 °F 24.8 °F 80% 30.03 in - NNW 12.7 mph 16.1 mph N/A   Overcast
9:55 PM 30.2 °F 21.3 °F 24.8 °F 80% 30.03 in - NNW 10.4 mph - N/A   Overcast
10:15 PM 30.2 °F 21.3 °F 24.8 °F 80% 30.04 in - NNW 10.4 mph - N/A   Overcast
10:35 PM 30.2 °F 21.9 °F 24.8 °F 80% 30.05 in - NW 9.2 mph - N/A   Overcast
10:55 PM 30.2 °F 22.6 °F 24.8 °F 80% 30.04 in - NNW 8.1 mph - N/A   Overcast
11:15 PM 30.2 °F 21.9 °F 24.8 °F 80% 30.05 in - NW 9.2 mph - N/A   Overcast
11:35 PM 30.2 °F 21.3 °F 24.8 °F 80% 30.06 in - NW 10.4 mph - N/A   Overcast
11:55 PM 30.2 °F 21.9 °F 24.8 °F 80% 30.06 in - NNW 9.2 mph - N/A   Overcast